FW7447 Weather Reports


Display with metric or nautical units.
time (UTC)temp
F
wind
direction
speed
MPH
gust
MPH
rain 1hr
in
rain 24hr
in
rain mn
in
humidity
%
barometer
mb
20260505173046 75 186 8.0 24.0 0.00 0.00 0.00 40 1016.1
20260505171547 74 185 4.0 12.0 0.00 0.00 0.00 42 1016.1
20260505170040 75 190 5.0 15.0 0.00 0.00 0.00 43 1016.1
20260505164548 74 167 7.0 14.0 0.00 0.00 0.00 45 1016.2
20260505163048 74 149 4.0 12.0 0.00 0.00 0.00 46 1016.4
20260505161548 73 213 7.0 16.0 0.00 0.00 0.00 47 1016.4
20260505153044 71 236 7.0 17.0 0.00 0.00 0.00 49 1016.9
20260505151538 70 162 9.0 15.0 0.00 0.00 0.00 49 1016.9
20260505124547 58 224 1.0 5.0 0.00 0.00 0.00 69 1016.7
20260505123052 57 235 2.0 6.0 0.00 0.00 0.00 71 1016.5
20260505121545 56 192 1.0 4.0 0.00 0.00 0.00 74 1016.5
20260505120104 54 206 1.0 3.0 0.00 0.00 0.00 75 1016.2
20260505114541 53 0 0.0 2.0 0.00 0.00 0.00 77 1016.2
20260505113039 52 0 0.0 2.0 0.00 0.00 0.00 77 1016.1
20260505111546 52 0 0.0 4.0 0.00 0.00 0.00 76 1015.9
20260505110106 53 232 1.0 5.0 0.00 0.00 0.00 75 1015.8
20260505101538 53 165 2.0 10.0 0.00 0.00 0.00 73 1015.7
20260505100036 54 165 2.0 7.0 0.00 0.00 0.00 72 1015.6
20260505094545 54 171 1.0 6.0 0.00 0.00 0.00 71 1015.6
20260505093127 54 153 1.0 6.0 0.00 0.00 0.00 71 1015.6
20260505091551 54 162 3.0 10.0 0.00 0.00 0.00 71 1015.5
20260505090040 54 182 1.0 7.0 0.00 0.00 0.00 71 1015.3
20260505084539 54 194 2.0 7.0 0.00 0.00 0.00 71 1015.2
20260505083058 53 192 2.0 6.0 0.00 0.00 0.00 72 1015.0
20260505081544 53 0 0.0 2.0 0.00 0.00 0.00 72 1015.0
20260505080045 53 202 1.0 3.0 0.00 0.00 0.00 71 1014.7
20260505074544 53 202 1.0 3.0 0.00 0.00 0.00 71 1014.7
20260505073046 54 0 0.0 2.0 0.00 0.00 0.00 70 1014.5
20260505071540 55 202 0.0 2.0 0.00 0.00 0.00 68 1014.4
20260505070050 56 0 0.0 5.0 0.00 0.00 0.00 66 1014.5
20260505064610 56 200 2.0 5.0 0.00 0.00 0.00 65 1014.6
20260505063043 57 200 1.0 3.0 0.00 0.00 0.00 64 1014.9
20260505061540 57 182 1.0 6.0 0.00 0.00 0.00 63 1015.0
20260505060039 57 198 2.0 7.0 0.00 0.00 0.00 63 1015.0
20260505054550 58 0 2.0 5.0 0.00 0.00 0.00 62 1015.0
20260505053045 58 179 2.0 9.0 0.00 0.00 0.00 62 1014.9
20260505051543 57 219 1.0 5.0 0.00 0.00 0.00 62 1015.0
20260505041544 59 0 0.0 3.0 0.00 0.00 0.00 59 1015.0
20260505040053 60 209 0.0 3.0 0.00 0.00 0.00 57 1015.0
20260505034601 60 0 0.0 4.0 0.00 0.00 0.00 57 1015.3
20260505033042 61 208 1.0 3.0 0.00 0.00 0.00 56 1015.4
20260505031546 61 0 0.0 3.0 0.00 0.00 0.00 54 1015.3
20260505030049 62 209 0.0 3.0 0.00 0.00 0.00 53 1015.4
20260505024541 62 209 1.0 4.0 0.00 0.00 0.00 52 1015.4
20260505023044 63 0 1.0 5.0 0.00 0.00 0.00 52 1015.4
20260505021547 64 202 2.0 5.0 0.00 0.00 0.00 51 1015.2
20260505020052 64 197 1.0 7.0 0.00 0.00 0.00 50 1015.1
20260505014547 65 213 2.0 7.0 0.00 0.00 0.00 49 1014.7
20260505013042 65 200 2.0 7.0 0.00 0.00 0.00 48 1014.6
20260505011545 66 196 3.0 9.0 0.00 0.00 0.00 47 1014.4
20260505010054 67 199 1.0 4.0 0.00 0.00 0.00 45 1014.3
20260505004601 68 173 1.0 8.0 0.00 0.00 0.00 43 1014.0
20260505003050 68 171 3.0 7.0 0.00 0.00 0.00 42 1013.8
20260505001545 69 175 2.0 8.0 0.00 0.00 0.00 41 1013.9
20260505000045 70 0 0.0 5.0 0.00 0.00 0.00 41 1013.8
20260504234541 71 175 1.0 5.0 0.00 0.00 0.00 39 1013.7
20260504233040 72 150 2.0 9.0 0.00 0.00 0.00 38 1013.5
20260504231615 73 189 3.0 7.0 0.00 0.00 0.00 36 1013.6
20260504230046 74 217 3.0 8.0 0.00 0.00 0.00 34 1013.5
20260504224545 75 178 2.0 10.0 0.00 0.00 0.00 33 1013.6
20260504223046 75 168 5.0 15.0 0.00 0.00 0.00 33 1013.7
20260504221556 76 232 2.0 15.0 0.00 0.00 0.00 34 1013.5
20260504220039 76 200 4.0 11.0 0.00 0.00 0.00 33 1013.4
20260504214544 76 151 6.0 17.0 0.00 0.00 0.00 33 1013.5
20260504213045 77 108 3.0 16.0 0.00 0.00 0.00 34 1013.5
20260504211540 77 134 4.0 12.0 0.00 0.00 0.00 33 1013.5
20260504210046 78 141 5.0 17.0 0.00 0.00 0.00 32 1013.4
20260504204546 78 219 3.0 10.0 0.00 0.00 0.00 32 1013.6
20260504203047 78 136 4.0 15.0 0.00 0.00 0.00 31 1013.8
20260504201545 78 162 6.0 18.0 0.00 0.00 0.00 31 1014.0
20260504200041 77 143 5.0 11.0 0.00 0.00 0.00 31 1014.2
20260504194549 78 238 5.0 10.0 0.00 0.00 0.00 31 1014.4
20260504193045 78 161 3.0 12.0 0.00 0.00 0.00 30 1014.6
20260504191608 77 182 3.0 10.0 0.00 0.00 0.00 30 1014.7
20260504190045 77 169 3.0 12.0 0.00 0.00 0.00 32 1015.0
20260504184555 77 200 3.0 12.0 0.00 0.00 0.00 32 1015.2
20260504183043 76 259 4.0 10.0 0.00 0.00 0.00 32 1015.3
20260504181541 76 142 4.0 13.0 0.00 0.00 0.00 32 1015.5
20260504180038 76 188 5.0 11.0 0.00 0.00 0.00 33 1015.7
20260504174546 75 221 2.0 9.0 0.00 0.00 0.00 36 1015.7